| time (UTC) | temp F | wind direction | speed MPH | gust MPH | rain 1hr in | rain 24hr in | rain mn in | humidity % | barometer mb |
| 20260505124507 | 63 | 219 | 0.0 | 0.0 | 0.00 | 0.00 | 0.00 | 70 | 1009.1 |
| 20260505123005 | 62 | 219 | 0.0 | 0.0 | 0.00 | 0.00 | 0.00 | 69 | 1009.2 |
| 20260505121510 | 62 | 81 | 0.0 | 0.0 | 0.00 | 0.00 | 0.00 | 70 | 1009.1 |
| 20260505114556 | 57 | 216 | 0.0 | 0.0 | 0.00 | 0.00 | 0.00 | 79 | 1009.3 |
| 20260505113058 | 56 | 296 | 0.0 | 2.0 | 0.00 | 0.00 | 0.00 | 79 | 1009.1 |
| 20260505111554 | 55 | 191 | 0.0 | 8.0 | 0.00 | 0.00 | 0.00 | 80 | 1009.1 |
| 20260505101543 | 0 | 0.0 | 0.0 | 0.00 | 0.00 | 0.00 | 1009.2 | ||
| 20260505100043 | 0 | 0.0 | 0.0 | 0.00 | 0.00 | 0.00 | 1008.9 | ||
| 20260505094533 | 0 | 0.0 | 0.0 | 0.00 | 0.00 | 0.00 | 1009.0 | ||
| 20260505093030 | 0 | 0.0 | 0.0 | 0.00 | 0.00 | 0.00 | 1009.1 | ||
| 20260505091532 | 0 | 0.0 | 0.0 | 0.00 | 0.00 | 0.00 | 1009.1 | ||
| 20260505090020 | 0 | 0.0 | 0.0 | 0.00 | 0.00 | 0.00 | 1009.0 | ||
| 20260505084515 | 0 | 0.0 | 0.0 | 0.00 | 0.00 | 0.00 | 1009.2 | ||
| 20260505083009 | 0 | 0.0 | 0.0 | 0.00 | 0.00 | 0.00 | 1009.2 | ||
| 20260505081506 | 0 | 0.0 | 0.0 | 0.00 | 0.00 | 0.00 | 1009.4 | ||
| 20260505080001 | 0 | 0.0 | 0.0 | 0.00 | 0.00 | 0.00 | 1009.4 | ||
| 20260505074557 | 0 | 0.0 | 0.0 | 0.00 | 0.00 | 0.00 | 1009.5 | ||
| 20260505073059 | 0 | 0.0 | 0.0 | 0.00 | 0.00 | 0.00 | 1009.4 | ||
| 20260505071549 | 0 | 0.0 | 0.0 | 0.00 | 0.00 | 0.00 | 1009.6 | ||
| 20260505070044 | 0 | 0.0 | 0.0 | 0.00 | 0.00 | 0.00 | 1009.7 | ||
| 20260505064539 | 0 | 0.0 | 0.0 | 0.00 | 0.00 | 0.00 | 1009.7 | ||
| 20260505063045 | 0 | 0.0 | 0.0 | 0.00 | 0.00 | 0.00 | 1009.7 | ||
| 20260505061535 | 0 | 0.0 | 0.0 | 0.00 | 0.00 | 0.00 | 1009.8 | ||
| 20260505060029 | 0 | 0.0 | 0.0 | 0.00 | 0.00 | 0.00 | 1009.8 | ||
| 20260505054533 | 0 | 0.0 | 0.0 | 0.00 | 0.00 | 0.00 | 1009.9 | ||
| 20260505053017 | 0 | 0.0 | 0.0 | 0.00 | 0.00 | 0.00 | 1010.0 | ||
| 20260505051518 | 0 | 0.0 | 0.0 | 0.00 | 0.00 | 0.00 | 1009.8 | ||
| 20260505041610 | 55 | 166 | 0.0 | 0.0 | 0.00 | 0.00 | 0.00 | 68 | 1010.0 |
| 20260505040100 | 55 | 58 | 0.0 | 0.0 | 0.00 | 0.00 | 0.00 | 67 | 1009.8 |
| 20260505034555 | 56 | 71 | 0.0 | 0.0 | 0.00 | 0.00 | 0.00 | 66 | 1009.8 |
| 20260505033055 | 56 | 235 | 0.0 | 0.0 | 0.00 | 0.00 | 0.00 | 65 | 1009.8 |
| 20260505031555 | 56 | 84 | 0.0 | 0.0 | 0.00 | 0.00 | 0.00 | 64 | 1009.7 |
| 20260505024602 | 57 | 172 | 0.0 | 0.0 | 0.00 | 0.00 | 0.00 | 62 | 1009.5 |
| 20260505023058 | 57 | 238 | 0.0 | 0.0 | 0.00 | 0.00 | 0.00 | 61 | 1009.8 |
| 20260505021557 | 58 | 205 | 0.0 | 0.0 | 0.00 | 0.00 | 0.00 | 60 | 1009.7 |
| 20260505014552 | 59 | 221 | 0.0 | 0.0 | 0.00 | 0.00 | 0.00 | 57 | 1009.8 |
| 20260505013050 | 60 | 190 | 0.0 | 0.0 | 0.00 | 0.00 | 0.00 | 56 | 1009.6 |
| 20260505011550 | 60 | 210 | 0.0 | 0.0 | 0.00 | 0.00 | 0.00 | 55 | 1009.2 |
| 20260505010107 | 61 | 201 | 0.0 | 1.0 | 0.00 | 0.00 | 0.00 | 54 | 1009.1 |
| 20260505004550 | 61 | 176 | 0.0 | 0.0 | 0.00 | 0.00 | 0.00 | 53 | 1008.8 |
| 20260505003051 | 62 | 198 | 0.0 | 0.0 | 0.00 | 0.00 | 0.00 | 52 | 1008.5 |
| 20260505001548 | 63 | 238 | 1.0 | 5.0 | 0.00 | 0.00 | 0.00 | 51 | 1008.1 |
| 20260505000053 | 64 | 217 | 0.0 | 0.0 | 0.00 | 0.00 | 0.00 | 49 | 1007.8 |
| 20260504234547 | 65 | 206 | 0.0 | 0.0 | 0.00 | 0.00 | 0.00 | 47 | 1007.3 |
| 20260504233051 | 66 | 229 | 1.0 | 6.0 | 0.00 | 0.00 | 0.00 | 44 | 1007.2 |
| 20260504231545 | 68 | 253 | 0.0 | 0.0 | 0.00 | 0.00 | 0.00 | 39 | 1006.7 |
| 20260504230104 | 69 | 214 | 0.0 | 0.0 | 0.00 | 0.00 | 0.00 | 38 | 1006.7 |
| 20260504224559 | 69 | 256 | 0.0 | 1.0 | 0.00 | 0.00 | 0.00 | 36 | 1006.6 |
| 20260504223044 | 70 | 245 | 0.0 | 0.0 | 0.00 | 0.00 | 0.00 | 36 | 1006.3 |
| 20260504221543 | 71 | 258 | 0.0 | 0.0 | 0.00 | 0.00 | 0.00 | 36 | 1006.5 |
| 20260504220051 | 71 | 254 | 0.0 | 0.0 | 0.00 | 0.00 | 0.00 | 35 | 1006.4 |
| 20260504214546 | 70 | 278 | 0.0 | 0.0 | 0.00 | 0.00 | 0.00 | 37 | 1006.4 |
| 20260504213041 | 70 | 247 | 0.0 | 2.0 | 0.00 | 0.00 | 0.00 | 36 | 1006.5 |
| 20260504211542 | 71 | 155 | 2.0 | 6.0 | 0.00 | 0.00 | 0.00 | 34 | 1006.5 |
| 20260504210053 | 72 | 272 | 4.0 | 8.0 | 0.00 | 0.00 | 0.00 | 34 | 1006.5 |
| 20260504204546 | 72 | 205 | 1.0 | 8.0 | 0.00 | 0.00 | 0.00 | 34 | 1006.5 |
| 20260504203042 | 72 | 228 | 0.0 | 6.0 | 0.00 | 0.00 | 0.00 | 33 | 1006.5 |
| 20260504201538 | 72 | 286 | 1.0 | 5.0 | 0.00 | 0.00 | 0.00 | 33 | 1006.5 |
| 20260504200048 | 73 | 232 | 2.0 | 8.0 | 0.00 | 0.00 | 0.00 | 32 | 1006.4 |
| 20260504194535 | 72 | 20 | 2.0 | 6.0 | 0.00 | 0.00 | 0.00 | 33 | 1006.5 |
| 20260504193032 | 73 | 65 | 3.0 | 8.0 | 0.00 | 0.00 | 0.00 | 31 | 1006.5 |
| 20260504191533 | 73 | 267 | 4.0 | 10.0 | 0.00 | 0.00 | 0.00 | 30 | 1006.5 |
| 20260504190029 | 73 | 213 | 2.0 | 8.0 | 0.00 | 0.00 | 0.00 | 31 | 1006.6 |
| 20260504184534 | 72 | 259 | 3.0 | 12.0 | 0.00 | 0.00 | 0.00 | 31 | 1006.9 |
| 20260504183033 | 72 | 76 | 3.0 | 11.0 | 0.00 | 0.00 | 0.00 | 31 | 1006.9 |
| 20260504181524 | 72 | 359 | 2.0 | 8.0 | 0.00 | 0.00 | 0.00 | 32 | 1007.0 |
| 20260504180025 | 72 | 220 | 3.0 | 9.0 | 0.00 | 0.00 | 0.00 | 30 | 1007.0 |
| 20260504174520 | 74 | 207 | 0.0 | 5.0 | 0.00 | 0.00 | 0.00 | 32 | 1006.9 |
| 20260504173016 | 71 | 267 | 3.0 | 9.0 | 0.00 | 0.00 | 0.00 | 33 | 1007.3 |
| 20260504171516 | 71 | 233 | 0.0 | 6.0 | 0.00 | 0.00 | 0.00 | 33 | 1007.4 |